Regional Weather Roundup
Issued by NWS Raleigh/Durham, NC

Home | Current Version | Previous Version | Text Only | Print | Product List | Glossary On
Versions: 1 2 3 4 5 6 7 8 9 10 11 12 13 14 15 16 17 18 19 20 21 22 23 24 25 26 27 28 29 30 31 32 33 34 35 36 37 38 39 40 41 42 43 44 45 46 47 48 49 50
248
ASUS42 KRAH 081210
RWRRAH
NORTH CAROLINA WEATHER ROUNDUP
NATIONAL WEATHER SERVICE RALEIGH NC
700 AM EST MON FEB 08 2016

NOTE: "FAIR" INDICATES FEW OR NO CLOUDS BELOW 12,000 FEET WITH NO
SIGNIFICANT WEATHER AND/OR OBSTRUCTIONS TO VISIBILITY.

NCZ001-053-055-056-065-067-081300-
WESTERN NORTH CAROLINA

CITY           SKY/WX    TMP DP  RH WIND       PRES   REMARKS
ASHEVILLE      PTCLDY    27  23  85 W3        29.75F
JEFFERSON      PTCLDY    35  15  44 SE5       29.71F WCI  31
MORGANTON      CLEAR     25  23  93 CALM      29.82F
HICKORY        CLEAR     30  23  75 CALM      29.78F
RUTHERFORDTON  PTCLDY    26  23  88 CALM      29.79F
MOUNT AIRY     CLEAR     27  24  87 CALM      29.80S
BOONE          PTCLDY    29  21  71 S3        29.72F
$$

NCZ021-022-025-041-071-084-088-081300-
CENTRAL NORTH CAROLINA

CITY           SKY/WX    TMP DP  RH WIND       PRES   REMARKS
CHARLOTTE      PTCLDY    32  22  66 SE3       29.82S
GREENSBORO     PTCLDY    28  22  78 SW5       29.80S WCI  23
WINSTON-SALEM  CLEAR     28  22  78 CALM      29.81S
RALEIGH-DURHAM PTCLDY    28  23  81 CALM      29.83S
FORT BRAGG     CLEAR     30  25  83 CALM      29.83F
FAYETTEVILLE   CLEAR     30  26  85 SW3       29.85S
BURLINGTON     PTCLDY    25  22  88 CALM      29.81S
LAURINBURG     CLEAR     29  24  82 CALM      29.86F
$$

NCZ011-015-027-028-043-044-047-080-103-081300-
NORTHEASTERN NORTH CAROLINA

CITY           SKY/WX    TMP DP  RH WIND       PRES   REMARKS
ROCKY MT-WILSO CLEAR     30  24  78 W3        29.84R
GREENVILLE     CLEAR     36  27  69 NW3       29.86R
WASHINGTON     CLEAR     34  24  66 CALM      29.83R
ELIZABETH CITY CLEAR     34  26  72 W12       29.76R WCI  25
MANTEO         MOCLDY    40  33  76 NW12G21   29.73S WCI  32
CAPE HATTERAS  MOCLDY    41  31  67 NW14G23   29.73R
$$

NCZ078-087-090-091-093-098-101-081300-
SOUTHEASTERN NORTH CAROLINA

CITY           SKY/WX    TMP DP  RH WIND       PRES   REMARKS
LUMBERTON      CLEAR     30  28  92 CALM      29.86F
GOLDSBORO      CLEAR     32  28  86 W3        29.83S
KINSTON        CLEAR     34  27  75 W3        29.85R
KENANSVILLE      N/A     33  26  73 CALM      29.86S
NEW BERN       CLEAR     35  24  64 W9        29.84R WCI  28
CHERRY POINT   CLEAR     35  25  66 W10       29.84R WCI  27
BEAUFORT       CLEAR     36  27  69 NW15      29.83R WCI  27
JACKSONVILLE   CLEAR     34  25  69 W9        29.84S WCI  27
WILMINGTON     CLEAR     33  28  81 SW3       29.87R
$$





USA.gov is the U.S. government's official web portal to all federal, state and local government web resources and services.